FW8343 Weather Reports


Display with metric or nautical units.
time (UTC)temp
F
wind
direction
speed
MPH
gust
MPH
rain 1hr
in
rain 24hr
in
rain mn
in
humidity
%
barometer
mb
20260903143042 65 0 0.0 5.0 0.00 0.00 0.00 91 1015.6
20260903142520 65 0 1.0 5.0 0.00 0.00 0.00 90 1015.5
20260903142020 65 0 0.0 4.0 0.00 0.00 0.00 89 1015.4
20260903141537 66 153 0.0 4.0 0.00 0.00 0.00 88 1015.5
20260903141021 66 0 0.0 4.0 0.00 0.00 0.00 87 1015.5
20260903140521 66 0 0.0 5.0 0.00 0.00 0.00 87 1015.8
20260903140040 66 125 2.0 5.0 0.00 0.00 0.00 87 1015.8
20260903135519 66 0 0.0 3.0 0.00 0.00 0.00 87 1015.7
20260903135019 66 0 0.0 3.0 0.00 0.00 0.00 88 1015.7
20260903134547 66 0 0.0 1.0 0.00 0.00 0.00 88 1015.4
20260903134021 65 0 0.0 0.0 0.00 0.00 0.00 87 1015.5
20260903133518 65 0 0.0 0.0 0.00 0.00 0.00 87 1015.4
20260903133038 65 0 0.0 1.0 0.00 0.00 0.00 87 1015.4
20260903132519 65 0 0.0 1.0 0.00 0.00 0.00 88 1015.2
20260903132020 65 167 0.0 1.0 0.00 0.00 0.00 88 1015.4
20260903131534 65 0 0.0 1.0 0.00 0.00 0.00 88 1015.4
20260903131020 64 0 0.0 1.0 0.00 0.00 0.00 89 1015.5
20260903130523 64 167 0.0 1.0 0.00 0.00 0.00 89 1015.6
20260903130033 64 0 0.0 5.0 0.00 0.00 0.00 89 1015.6
20260903125519 64 0 0.0 5.0 0.00 0.00 0.00 89 1015.6
20260903125016 64 167 1.0 5.0 0.00 0.00 0.00 92 1015.6
20260903124535 63 0 0.0 3.0 0.00 0.00 0.00 91 1015.5
20260903124017 62 0 0.0 4.0 0.00 0.00 0.00 92 1015.3
20260903123522 62 0 0.0 4.0 0.00 0.00 0.00 92 1015.3
20260903123034 61 0 0.0 0.0 0.00 0.00 0.00 91 1015.2
20260903122520 61 0 0.0 1.0 0.00 0.00 0.00 91 1015.3
20260903122020 61 0 0.0 1.0 0.00 0.00 0.00 91 1015.3
20260903121532 61 0 0.0 0.0 0.00 0.00 0.00 90 1015.3
20260903121019 61 0 0.0 3.0 0.00 0.00 0.00 89 1015.3
20260903120519 61 0 0.0 3.0 0.00 0.00 0.00 90 1015.3
20260903120039 61 0 0.0 0.0 0.00 0.00 0.00 89 1015.2
20260903115518 62 0 0.0 0.0 0.00 0.00 0.00 88 1015.2
20260903115018 62 0 0.0 0.0 0.00 0.00 0.00 88 1015.2
20260903114536 62 0 0.0 2.0 0.00 0.00 0.00 87 1015.2
20260903114021 63 0 0.0 3.0 0.00 0.00 0.00 89 1015.2
20260903113520 63 0 0.0 3.0 0.00 0.00 0.00 89 1015.2
20260903113036 63 0 0.0 3.0 0.00 0.00 0.00 89 1015.2
20260903112525 63 0 0.0 1.0 0.00 0.00 0.00 89 1015.2
20260903112020 62 0 0.0 3.0 0.00 0.00 0.00 88 1015.0
20260903111536 62 0 0.0 3.0 0.00 0.00 0.00 91 1015.0
20260903111019 62 155 0.0 3.0 0.00 0.00 0.00 92 1015.0
20260903110522 61 0 0.0 3.0 0.00 0.00 0.00 91 1014.9
20260903110033 61 0 0.0 3.0 0.00 0.00 0.00 90 1014.8
20260903105516 61 0 0.0 2.0 0.00 0.00 0.00 89 1014.9
20260903105019 61 0 0.0 1.0 0.00 0.00 0.00 87 1014.9
20260903104534 61 0 0.0 0.0 0.00 0.00 0.00 87 1014.6
20260903104021 61 0 0.0 0.0 0.00 0.00 0.00 86 1014.5
20260903103520 62 0 0.0 0.0 0.00 0.00 0.00 85 1014.6
20260903103037 62 0 0.0 2.0 0.00 0.00 0.00 84 1014.7
20260903102521 63 0 0.0 2.0 0.00 0.00 0.00 83 1014.7
20260903102020 64 0 0.0 2.0 0.00 0.00 0.00 86 1015.0
20260903101539 63 0 0.0 2.0 0.00 0.00 0.00 85 1015.1
20260903101018 63 0 0.0 3.0 0.00 0.00 0.00 84 1015.1
20260903100518 63 0 0.0 3.0 0.00 0.00 0.00 86 1015.0
20260903100033 63 0 0.0 2.0 0.00 0.00 0.00 86 1015.1
20260903095520 63 0 0.0 2.0 0.00 0.00 0.00 87 1015.1
20260903095016 62 0 0.0 2.0 0.00 0.00 0.00 89 1014.9
20260903094541 61 0 0.0 2.0 0.00 0.00 0.00 88 1014.9
20260903094021 61 0 0.0 2.0 0.00 0.00 0.00 87 1014.9
20260903093521 61 0 0.0 1.0 0.00 0.00 0.00 85 1014.9
20260903093049 61 0 0.0 1.0 0.00 0.00 0.00 85 1014.6
20260903092524 61 0 0.0 1.0 0.00 0.00 0.00 85 1014.6
20260903092021 62 0 0.0 0.0 0.00 0.00 0.00 84 1014.5
20260903091536 62 0 0.0 2.0 0.00 0.00 0.00 84 1014.7
20260903091019 62 0 0.0 2.0 0.00 0.00 0.00 83 1014.6
20260903090518 63 0 0.0 0.0 0.00 0.00 0.00 83 1014.6
20260903090037 63 0 0.0 0.0 0.00 0.00 0.00 83 1014.6
20260903085516 63 0 0.0 5.0 0.00 0.00 0.00 84 1014.6
20260903085016 63 0 0.0 5.0 0.00 0.00 0.00 87 1014.7
20260903084536 61 150 2.0 5.0 0.00 0.00 0.00 91 1014.7
20260903084021 60 0 0.0 0.0 0.00 0.00 0.00 87 1014.8
20260903083521 60 0 0.0 0.0 0.00 0.00 0.00 87 1014.9
20260903083034 60 0 0.0 0.0 0.00 0.00 0.00 87 1014.9
20260903082520 60 0 0.0 0.0 0.00 0.00 0.00 86 1014.7
20260903082020 61 0 0.0 0.0 0.00 0.00 0.00 86 1014.8
20260903081541 61 0 0.0 0.0 0.00 0.00 0.00 86 1014.9
20260903081017 61 0 0.0 0.0 0.00 0.00 0.00 85 1014.9
20260903080520 61 0 0.0 0.0 0.00 0.00 0.00 85 1014.9
20260903080035 61 0 0.0 0.0 0.00 0.00 0.00 85 1015.0
20260903075523 61 0 0.0 0.0 0.00 0.00 0.00 85 1015.0
20260903075019 61 0 0.0 2.0 0.00 0.00 0.00 85 1014.9
20260903074536 61 0 0.0 2.0 0.00 0.00 0.00 85 1015.1
20260903074019 61 0 0.0 0.0 0.00 0.00 0.00 85 1015.0
20260903073517 61 0 0.0 0.0 0.00 0.00 0.00 85 1014.9
20260903073036 61 0 0.0 0.0 0.00 0.00 0.00 84 1014.9
20260903072518 61 0 0.0 0.0 0.00 0.00 0.00 84 1014.8
20260903072019 62 0 0.0 0.0 0.00 0.00 0.00 84 1015.0
20260903071534 62 0 0.0 0.0 0.00 0.00 0.00 83 1015.0
20260903071020 62 0 0.0 0.0 0.00 0.00 0.00 83 1015.0
20260903070519 62 0 0.0 0.0 0.00 0.00 0.00 83 1015.2
20260903070036 62 0 0.0 1.0 0.00 0.00 0.00 82 1015.2
20260903065520 62 0 0.0 1.0 0.00 0.00 0.00 82 1015.2
20260903065023 63 0 0.0 1.0 0.00 0.00 0.00 82 1015.3
20260903064534 63 0 0.0 0.0 0.00 0.00 0.00 82 1015.3
20260903064019 63 0 0.0 0.0 0.00 0.00 0.00 82 1015.4
20260903063518 63 0 0.0 0.0 0.00 0.00 0.00 82 1015.5
20260903063035 63 0 0.0 0.0 0.00 0.00 0.00 81 1015.6
20260903062522 63 0 0.0 0.0 0.00 0.00 0.00 81 1015.6
20260903062021 64 0 0.0 0.0 0.00 0.00 0.00 81 1015.5
20260903061535 64 0 0.0 0.0 0.00 0.00 0.00 81 1015.5
20260903061022 64 0 0.0 0.0 0.00 0.00 0.00 81 1015.5
20260903060519 64 0 0.0 0.0 0.00 0.00 0.00 82 1015.5
20260903060039 64 0 0.0 0.0 0.00 0.00 0.00 82 1015.5
20260903055522 64 0 0.0 0.0 0.00 0.00 0.00 81 1015.6
20260903055019 64 0 0.0 0.0 0.00 0.00 0.00 81 1015.5
20260903054536 64 0 0.0 0.0 0.00 0.00 0.00 81 1015.5
20260903054021 64 0 0.0 0.0 0.00 0.00 0.00 81 1015.5
20260903053520 64 0 0.0 0.0 0.00 0.00 0.00 81 1015.8
20260903053037 64 0 0.0 0.0 0.00 0.00 0.00 82 1015.6
20260903052519 64 0 0.0 0.0 0.00 0.00 0.00 82 1015.6
20260903052021 64 0 0.0 0.0 0.00 0.00 0.00 82 1015.6
20260903051544 64 0 0.0 0.0 0.00 0.00 0.00 82 1015.6
20260903051017 64 0 0.0 0.0 0.00 0.00 0.00 82 1015.4
20260903050516 64 0 0.0 0.0 0.00 0.00 0.00 82 1015.6
20260903050037 64 0 0.0 0.0 0.00 0.00 0.00 82 1015.4
20260903045520 64 0 0.0 0.0 0.00 0.00 0.00 82 1015.5
20260903045019 64 0 0.0 0.0 0.00 0.00 0.00 82 1015.6
20260903044536 64 0 0.0 1.0 0.00 0.00 0.00 83 1015.6
20260903044021 64 0 0.0 1.0 0.00 0.00 0.00 86 1015.7
20260903043520 63 0 0.0 0.0 0.00 0.00 0.00 83 1015.8
20260903043040 63 0 0.0 0.0 0.00 0.00 0.00 82 1015.5
20260903042521 64 0 0.0 0.0 0.00 0.00 0.00 82 1015.5
20260903042019 64 0 0.0 0.0 0.00 0.00 0.00 82 1015.4
20260903041535 64 0 0.0 0.0 0.00 0.00 0.00 82 1015.4
20260903041016 64 0 0.0 0.0 0.00 0.00 0.00 81 1015.3
20260903040519 64 0 0.0 0.0 0.00 0.00 0.00 81 1015.3
20260903040035 64 0 0.0 0.0 0.00 0.00 0.00 81 1015.2
20260903035519 65 0 0.0 0.0 0.00 0.00 0.00 81 1015.2
20260903035021 65 0 0.0 0.0 0.00 0.00 0.00 80 1015.3
20260903034536 65 0 0.0 0.0 0.00 0.00 0.00 79 1015.3
20260903034020 65 0 0.0 0.0 0.00 0.00 0.00 79 1015.3
20260903033519 65 0 0.0 0.0 0.00 0.00 0.00 79 1015.4
20260903033035 65 0 0.0 0.0 0.00 0.00 0.00 79 1015.5
20260903032521 65 0 0.0 0.0 0.00 0.00 0.00 79 1015.4
20260903032023 65 0 0.0 0.0 0.00 0.00 0.00 79 1015.5
20260903031536 65 0 0.0 0.0 0.00 0.00 0.00 79 1015.4
20260903031018 65 0 0.0 0.0 0.00 0.00 0.00 80 1015.4
20260903030524 65 0 0.0 0.0 0.00 0.00 0.00 80 1015.5
20260903030037 65 0 0.0 0.0 0.00 0.00 0.00 80 1015.4
20260903025522 65 0 0.0 0.0 0.00 0.00 0.00 80 1015.2
20260903025020 65 0 0.0 0.0 0.00 0.00 0.00 80 1015.2
20260903024532 65 0 0.0 0.0 0.00 0.00 0.00 80 1015.2
20260903024023 65 0 0.0 0.0 0.00 0.00 0.00 79 1015.2
20260903023519 66 0 0.0 0.0 0.00 0.00 0.00 79 1015.2
20260903023055 66 0 0.0 0.0 0.00 0.00 0.00 79 1015.1
20260903022521 66 0 0.0 0.0 0.00 0.00 0.00 78 1015.2
20260903022019 66 0 0.0 0.0 0.00 0.00 0.00 78 1015.2
20260903021543 66 0 0.0 0.0 0.00 0.00 0.00 78 1015.2
20260903021027 67 0 0.0 0.0 0.00 0.00 0.00 78 1015.1
20260903020521 67 0 0.0 0.0 0.00 0.00 0.00 77 1015.1
20260903020033 67 0 0.0 0.0 0.00 0.00 0.00 77 1015.1
20260903015522 68 0 0.0 0.0 0.00 0.00 0.00 76 1015.1
20260903015021 68 0 0.0 0.0 0.00 0.00 0.00 76 1015.1
20260903014535 68 0 0.0 0.0 0.00 0.00 0.00 75 1015.1
20260903014022 69 0 0.0 0.0 0.00 0.00 0.00 75 1015.0
20260903013520 69 0 0.0 0.0 0.00 0.00 0.00 74 1015.0
20260903013037 69 0 0.0 0.0 0.00 0.00 0.00 73 1014.9
20260903012516 69 0 0.0 0.0 0.00 0.00 0.00 73 1014.8
20260903012020 70 0 0.0 0.0 0.00 0.00 0.00 72 1014.8
20260903011535 70 0 0.0 0.0 0.00 0.00 0.00 72 1014.7
20260903011024 71 0 0.0 0.0 0.00 0.00 0.00 71 1014.6
20260903010522 71 0 0.0 0.0 0.00 0.00 0.00 70 1014.6
20260903010037 71 0 0.0 0.0 0.00 0.00 0.00 70 1014.6
20260903005521 72 0 0.0 0.0 0.00 0.00 0.00 70 1014.4
20260903005021 73 0 0.0 0.0 0.00 0.00 0.00 68 1014.4
20260903004535 73 0 0.0 0.0 0.00 0.00 0.00 67 1014.5
20260903004021 74 0 0.0 0.0 0.00 0.00 0.00 67 1014.4
20260903003518 74 0 0.0 0.0 0.00 0.00 0.00 66 1014.4
20260903003036 75 0 0.0 0.0 0.00 0.00 0.00 66 1014.4
20260903002516 75 0 0.0 0.0 0.00 0.00 0.00 66 1014.3
20260903002024 76 0 0.0 0.0 0.00 0.00 0.00 66 1014.3
20260903001537 76 0 0.0 0.0 0.00 0.00 0.00 65 1014.2
20260903001021 76 0 0.0 1.0 0.00 0.00 0.00 66 1014.2
20260903000521 76 0 0.0 2.0 0.00 0.00 0.00 64 1014.2
20260903000034 77 0 0.0 2.0 0.00 0.00 0.00 65 1014.2
20260902235521 77 0 0.0 0.0 0.00 0.00 0.00 64 1014.1
20260902235024 78 0 0.0 1.0 0.00 0.00 0.00 64 1014.2
20260902234539 78 0 0.0 3.0 0.00 0.00 0.00 63 1014.1
20260902234019 78 0 0.0 3.0 0.00 0.00 0.00 63 1014.1
20260902233518 78 0 1.0 3.0 0.00 0.00 0.00 60 1014.0
20260902233035 79 0 0.0 3.0 0.00 0.00 0.00 61 1014.1
20260902232522 79 0 0.0 3.0 0.00 0.00 0.00 60 1013.9
20260902232022 79 0 0.0 3.0 0.00 0.00 0.00 59 1013.9
20260902231551 79 0 0.0 3.0 0.00 0.00 0.00 61 1013.9
20260902231015 80 218 0.0 2.0 0.00 0.00 0.00 61 1013.8
20260902230521 80 0 0.0 2.0 0.00 0.00 0.00 58 1013.7
20260902230039 80 0 0.0 3.0 0.00 0.00 0.00 58 1013.8
20260902225525 80 0 0.0 3.0 0.00 0.00 0.00 59 1013.8
20260902225021 81 0 0.0 2.0 0.00 0.00 0.00 58 1013.8
20260902224535 81 0 0.0 3.0 0.00 0.00 0.00 59 1013.7
20260902224022 81 0 0.0 3.0 0.00 0.00 0.00 56 1013.7
20260902223519 81 0 0.0 3.0 0.00 0.00 0.00 55 1013.6
20260902223036 82 0 0.0 3.0 0.00 0.00 0.00 56 1013.6
20260902222519 82 0 0.0 3.0 0.00 0.00 0.00 57 1013.6
20260902222016 82 172 0.0 6.0 0.00 0.00 0.00 55 1013.5
20260902221538 82 172 0.0 6.0 0.00 0.00 0.00 54 1013.6
20260902221020 82 151 0.0 3.0 0.00 0.00 0.00 49 1013.5
20260902220521 82 0 0.0 3.0 0.00 0.00 0.00 51 1013.5
20260902220036 82 182 1.0 5.0 0.00 0.00 0.00 47 1013.4
20260902215521 82 0 0.0 5.0 0.00 0.00 0.00 50 1013.4
20260902215020 82 226 3.0 5.0 0.00 0.00 0.00 51 1013.4
20260902214544 82 349 0.0 2.0 0.00 0.00 0.00 50 1013.4
20260902214020 81 349 0.0 2.0 0.00 0.00 0.00 52 1013.5
20260902213523 81 182 0.0 2.0 0.00 0.00 0.00 48 1013.5
20260902213038 82 0 0.0 3.0 0.00 0.00 0.00 51 1013.5
20260902212519 82 182 1.0 4.0 0.00 0.00 0.00 48 1013.6
20260902212016 82 182 1.0 4.0 0.00 0.00 0.00 49 1013.6
20260902211536 82 0 0.0 4.0 0.00 0.00 0.00 49 1013.7
20260902211023 82 0 1.0 4.0 0.00 0.00 0.00 48 1013.7
20260902210521 82 229 1.0 5.0 0.00 0.00 0.00 51 1013.8
20260902210039 81 0 2.0 5.0 0.00 0.00 0.00 47 1013.7
20260902205519 81 190 0.0 4.0 0.00 0.00 0.00 53 1013.7
20260902205021 81 142 0.0 5.0 0.00 0.00 0.00 55 1013.7
20260902204536 80 221 2.0 7.0 0.00 0.00 0.00 53 1013.7
20260902204019 80 180 3.0 7.0 0.00 0.00 0.00 57 1013.8
20260902203516 80 229 1.0 5.0 0.00 0.00 0.00 54 1013.8
20260902203038 80 5 0.0 5.0 0.00 0.00 0.00 53 1013.9
20260902202518 80 0 0.0 5.0 0.00 0.00 0.00 54 1014.0
20260902202019 80 148 3.0 5.0 0.00 0.00 0.00 58 1013.9
20260902201533 80 0 0.0 3.0 0.00 0.00 0.00 53 1013.9
20260902201019 80 0 0.0 3.0 0.00 0.00 0.00 55 1013.9
20260902200524 80 124 2.0 5.0 0.00 0.00 0.00 51 1013.9
20260902200033 80 146 2.0 6.0 0.00 0.00 0.00 57 1014.1
20260902195521 80 163 4.0 6.0 0.00 0.00 0.00 54 1014.1
20260902195020 80 179 0.0 4.0 0.00 0.00 0.00 49 1014.1
20260902194536 80 0 1.0 4.0 0.00 0.00 0.00 49 1014.2
20260902194019 80 173 1.0 3.0 0.00 0.00 0.00 56 1014.3
20260902193518 80 0 1.0 3.0 0.00 0.00 0.00 52 1014.3
20260902193042 80 0 1.0 3.0 0.00 0.00 0.00 55 1014.3
20260902192516 80 130 1.0 3.0 0.00 0.00 0.00 56 1014.3
20260902192020 80 130 1.0 4.0 0.00 0.00 0.00 53 1014.3
20260902191536 80 130 2.0 4.0 0.00 0.00 0.00 51 1014.3
20260902191020 80 0 1.0 7.0 0.00 0.00 0.00 51 1014.3
20260902190545 80 130 2.0 7.0 0.00 0.00 0.00 53 1014.2
20260902190035 80 138 3.0 6.0 0.00 0.00 0.00 52 1014.3
20260902185520 81 194 2.0 5.0 0.00 0.00 0.00 55 1014.4
20260902185021 81 164 0.0 3.0 0.00 0.00 0.00 52 1014.4
20260902184537 81 316 0.0 3.0 0.00 0.00 0.00 49 1014.4
20260902184019 81 0 0.0 4.0 0.00 0.00 0.00 53 1014.4
20260902183519 80 232 1.0 5.0 0.00 0.00 0.00 53 1014.4
20260902183035 79 0 1.0 5.0 0.00 0.00 0.00 54 1014.5
20260902182520 78 186 1.0 9.0 0.00 0.00 0.00 57 1014.6
20260902182019 78 147 2.0 9.0 0.00 0.00 0.00 62 1014.7
20260902181539 78 144 5.0 9.0 0.00 0.00 0.00 58 1014.8
20260902181016 78 149 2.0 7.0 0.00 0.00 0.00 60 1014.9
20260902180519 78 190 2.0 7.0 0.00 0.00 0.00 59 1014.7
20260902180036 78 144 3.0 6.0 0.00 0.00 0.00 56 1014.7
20260902175520 78 215 2.0 4.0 0.00 0.00 0.00 61 1014.9
20260902175020 79 165 0.0 5.0 0.00 0.00 0.00 57 1014.9
20260902174537 78 229 2.0 5.0 0.00 0.00 0.00 58 1015.0
20260902174023 79 229 2.0 6.0 0.00 0.00 0.00 56 1015.1
20260902173520 79 228 2.0 6.0 0.00 0.00 0.00 56 1015.3
20260902173037 78 26 0.0 4.0 0.00 0.00 0.00 56 1015.4
20260902172521 78 0 0.0 3.0 0.00 0.00 0.00 60 1015.3
20260902172019 77 0 0.0 3.0 0.00 0.00 0.00 62 1015.2
20260902171539 76 0 1.0 5.0 0.00 0.00 0.00 65 1015.2
20260902171023 76 147 2.0 5.0 0.00 0.00 0.00 65 1015.1
20260902170523 76 135 3.0 5.0 0.00 0.00 0.00 63 1015.0
20260902170036 76 148 2.0 6.0 0.00 0.00 0.00 68 1014.9
20260902165528 76 148 1.0 6.0 0.00 0.00 0.00 68 1015.0
20260902165020 76 142 3.0 5.0 0.00 0.00 0.00 66 1015.0
20260902164537 76 152 0.0 5.0 0.00 0.00 0.00 68 1015.1
20260902164019 75 152 1.0 5.0 0.00 0.00 0.00 69 1015.1
20260902163520 75 152 2.0 5.0 0.00 0.00 0.00 67 1015.0
20260902163032 75 134 2.0 5.0 0.00 0.00 0.00 66 1015.1
20260902162516 75 156 2.0 7.0 0.00 0.00 0.00 67 1015.2
20260902162016 75 169 1.0 7.0 0.00 0.00 0.00 67 1015.1
20260902161539 74 155 3.0 7.0 0.00 0.00 0.00 69 1015.2
20260902161022 74 174 1.0 6.0 0.00 0.00 0.00 67 1015.1
20260902160525 74 174 2.0 5.0 0.00 0.00 0.00 70 1015.2
20260902160046 74 174 1.0 5.0 0.00 0.00 0.00 71 1015.2
20260902155521 74 174 1.0 5.0 0.00 0.00 0.00 69 1015.1
20260902155021 73 174 1.0 4.0 0.00 0.00 0.00 70 1015.2
20260902154536 74 178 1.0 4.0 0.00 0.00 0.00 72 1015.2
20260902154019 73 178 1.0 4.0 0.00 0.00 0.00 72 1015.3
20260902153519 73 178 1.0 4.0 0.00 0.00 0.00 71 1015.3
20260902153034 72 0 1.0 4.0 0.00 0.00 0.00 76 1015.3
20260902152518 72 178 1.0 4.0 0.00 0.00 0.00 75 1015.3
20260902152016 72 178 1.0 5.0 0.00 0.00 0.00 76 1015.1
20260902151533 71 172 2.0 5.0 0.00 0.00 0.00 77 1015.3
20260902151019 71 172 1.0 5.0 0.00 0.00 0.00 77 1015.2
20260902150520 71 172 1.0 5.0 0.00 0.00 0.00 77 1015.1
20260902150035 71 172 2.0 5.0 0.00 0.00 0.00 77 1015.2
20260902145521 71 189 1.0 4.0 0.00 0.00 0.00 77 1015.2
20260902145023 70 0 2.0 8.0 0.00 0.00 0.00 78 1015.3
20260902144534 70 189 3.0 8.0 0.00 0.00 0.00 79 1015.3
20260902144018 70 186 3.0 7.0 0.00 0.00 0.00 78 1015.2
20260902143519 70 150 2.0 9.0 0.00 0.00 0.00 81 1015.1